Regional Weather Roundup
Issued by NWS Midland/Odessa, TX

Skip options and go directly to product.
Home | Oldest Version | Next Version | Current Version | All | Text Only | Save Text | Print | Product List | Glossary On

Skip product version selection by date and time.   
509
ASUS44 KMAF 291210
RWRMAF
MIDLAND AREA WEATHER ROUNDUP
NATIONAL WEATHER SERVICE MIDLAND TX
700 AM CDT WED OCT 29 2014

...IN SOUTHWEST TEXAS AND SOUTHEAST NEW MEXICO...

CITY           SKY/WX    TMP DP  RH WIND       PRES   REMARKS
ALPINE         CLEAR     44  39  85 S6        30.28S
ANDREWS        FAIR      43  38  82 N3        30.23R
ARTESIA        NOT AVBL
BIG SPRING     CLEAR     54  40  60 CALM      30.24R
CARLSBAD       CLEAR     44  40  85 NW5       30.21R
DRYDEN           N/A     65  51  60 N9        30.13R
FORT STOCKTON  CLEAR     51  43  74 SW6       30.20R
GUAD PASS      CLEAR     49  39  68 NE21      30.26S
HOBBS          CLEAR     46  39  76 CALM      30.24
MARFA          CLEAR     45  39  81 N5        30.24S
MIDLAND AIRPK  CLEAR     50  40  69 NE3       30.22R
MIDLAND INTL   CLEAR     47  39  74 N6        30.21R
ODESSA         CLEAR     49  39  68 NE8       30.22R
PECOS          CLEAR     48  43  83 NW6       30.20R
PRESIDIO       FAIR      60  45  57 N5        30.14R
SEMINOLE       CLEAR     45  38  77 CALM      30.24R
SNYDER         CLEAR     49  38  67 NE7       30.22S
WINK           CLEAR     47  40  76 N8        30.20R
$$
...OTHER STATIONS IN TEXAS...

CITY           SKY/WX    TMP DP  RH WIND       PRES   REMARKS
ABILENE        PTCLDY    50  41  71 W5        30.21R
AMARILLO       CLEAR     40  33  76 S7        30.25R WCI  35
AUSTIN         MOCLDY    68  63  84 N10       30.10R
BROWNSVILLE    CLEAR     69  67  93 E3        30.03R
CORPUS CHRISTI MOCLDY    70  68  93 S3        30.05R
DALLAS FTW     PTCLDY    55  46  71 N7        30.16R
DEL RIO        CLEAR     63  61  93 CALM      30.08R
EL PASO        CLEAR     53  42  66 N7        30.17R
HOUSTON INT    PTCLDY    66  66 100 CALM      30.07S
LUBBOCK        CLEAR     43  34  70 E6        30.24R WCI  39
SAN ANGELO     CLOUDY    60  43  53 NE6       30.19R
SAN ANTONIO    MOCLDY    67  63  87 CALM      30.10R
WACO           MOCLDY    64  55  72 N9        30.14R
WICHITA FALLS  NOT AVBL
$$
...OTHER LOCATIONS IN NEW MEXICO...

CITY           SKY/WX    TMP DP  RH WIND       PRES   REMARKS
ALAMAGORDO     NOT AVBL
ALBUQUERQUE    CLEAR     47  22  37 N5        30.27R
CANNON AFB     CLEAR     41  36  83 CALM      30.25R
CLOVIS         CLEAR     39  32  75 CALM      30.27R
HOLLOMAN AFB   CLEAR     46  34  63 NE6       30.19R
ROSWELL        CLEAR     44  39  82 W5        30.22R
RUIDOSO        CLEAR     45  32  61 SW10      30.32R WCI  39
SANTA FE       PTCLDY    37  15  40 N10       30.28R WCI  30
TRUTH OR CONSE CLEAR     50  38  63 N5        30.21R
TUCUMCARI      CLEAR     42  36  79 SW8       30.21F WCI  37
$$

USA.gov is the U.S. government's official web portal to all federal, state and local government web resources and services.